Tracking 17154 objects as of 2-August-2015
HD Live streaming from Space Station

DELTA 2 DEB

Track DELTA 2 DEB now!
10-day predictions
DELTA 2 DEB is classified as:


NORAD ID: 27765
Int'l Code: 2000-040D
Perigee: 191.6 km
Apogee: 4,748.1 km
Inclination: 38.9 °
Period: 137.9 minutes
Semi major axis: 8840 km
RCS: 0.0144 m2 (small)
Launch date: July 16, 2000
Source: United States (US)

Note: This is SATELLITE DEBRIS
Your satellite tracking list
Your tracking list is empty





NASA's NSSDC Master Catalog

Two Line Element Set (TLE):
1 27765U 00040D   15213.65681679  .00112468  11687-5  44935-3 0  9999
2 27765 038.8732 326.9482 2576977 026.9844 344.4167 10.44388725350649

Source of the keplerian elements: AFSPC

N2YO: 280